Seattle, WA

4:15 PM PST on December 06, 2019 (GMT -0800)
Seattle-Tacoma International

Weather History for KSEA - June, 2019

Change the Weather History Date:

Thursday, June 6, 2019

  Actual Average Record
Temperature  
Mean Temperature 58 °F 59 °F  
Max Temperature 66 °F 68 °F 90 °F (2003)
Min Temperature 50 °F 51 °F 40 °F (1924)
Degree Days  
Heating Degree Days 7 6  
Month to date heating degree days 21 38  
Since 1 June heating degree days 21 38  
Since 1 July heating degree days 4029 4591  
Cooling Degree Days 0 0  
Month to date cooling degree days 0 0  
Year to date cooling degree days 21 6  
Since 1 June cooling degree days 0 0  
Growing Degree Days 7 (Base 50)    
Moisture  
Dew Point 42 °F    
Average Humidity 57    
Maximum Humidity 77    
Minimum Humidity 37    
Precipitation  
Precipitation 0.01 in 0.06 in 1.54 in (1985)
Month to date precipitation 0.01 0.38  
Year to date precipitation 13.98 17.82  
Sea Level Pressure  
Sea Level Pressure 30.01 in    
Wind  
Wind Speed 12 mph (SSW)    
Max Wind Speed 21 mph    
Max Gust Speed 26 mph    
Visibility 10 miles    
Events      
T = Trace of Precipitation, MM = Missing Value Source: NWS Daily Summary

Daily Weather History Graph

Daily Weather History Graph

Search for Another Location

Airport or City:

Astronomy

Jun. 06, 2019 Rise Set
Actual Time 5:13 AM PDT 9:02 PM PDT
Civil Twilight 4:34 AM PDT 9:42 PM PDT
Nautical Twilight 3:40 AM PDT 10:36 PM PDT
Astronomical Twilight 2:21 AM PDT 11:56 PM PDT
Moon 8:30 AM PDT (6/6) No Moon Set
Length of Visible Light 17h 08m
Length of Day
15h 48m
Waxing Crescent, 14% of the Moon is Illuminated
Jun 6
Waxing Crescent
Jun 9
First Quarter
Jun 17
Full
Jun 25
Last Quarter
Jul 2
New

Hourly Weather History & Observations

Time (PDT) Temp. Dew Point Humidity Pressure Visibility Wind Dir Wind Speed Gust Speed Precip Events Conditions
12:53 AM 51.1 °F 42.1 °F 71% 30.04 in 10.0 mi SW 6.9 mph - N/A   Partly Cloudy
1:53 AM 50.0 °F 41.0 °F 71% 30.04 in 10.0 mi South 8.1 mph - N/A   Scattered Clouds
2:08 AM 50.0 °F 41.0 °F 71% 30.02 in 10.0 mi SSE 4.6 mph - N/A   Mostly Cloudy
2:53 AM 51.1 °F 42.1 °F 71% 30.03 in 10.0 mi SSE 6.9 mph - N/A   Overcast
3:53 AM 50.0 °F 42.1 °F 74% 30.02 in 10.0 mi South 6.9 mph - N/A   Overcast
4:53 AM 50.0 °F 42.1 °F 74% 30.02 in 10.0 mi South 9.2 mph - N/A   Mostly Cloudy
5:53 AM 50.0 °F 43.0 °F 77% 30.01 in 10.0 mi South 5.8 mph - N/A   Mostly Cloudy
6:00 AM 50.0 °F 43.0 °F 77% 30.00 in 10.0 mi South 9.2 mph - N/A   Overcast
6:45 AM 50.0 °F 43.0 °F 77% 29.99 in 10.0 mi SSW 9.2 mph - N/A   Overcast
6:53 AM 51.1 °F 43.0 °F 74% 30.01 in 10.0 mi SSW 9.2 mph - N/A   Mostly Cloudy
7:53 AM 51.1 °F 44.1 °F 77% 30.02 in 10.0 mi SSW 8.1 mph - N/A   Mostly Cloudy
8:53 AM 52.0 °F 44.1 °F 74% 30.02 in 10.0 mi SSW 9.2 mph - N/A   Mostly Cloudy
9:53 AM 55.0 °F 44.1 °F 67% 30.01 in 10.0 mi WSW 9.2 mph - N/A   Mostly Cloudy
10:53 AM 57.9 °F 43.0 °F 58% 30.01 in 10.0 mi South 10.4 mph - N/A   Mostly Cloudy
11:53 AM 60.1 °F 41.0 °F 49% 30.01 in 10.0 mi SSW 9.2 mph - N/A   Mostly Cloudy
12:53 PM 57.9 °F 42.1 °F 56% 30.00 in 10.0 mi SW 13.8 mph - N/A   Mostly Cloudy
1:53 PM 63.0 °F 42.1 °F 46% 29.99 in 10.0 mi South 12.7 mph - 0.01 in   Scattered Clouds
2:53 PM 64.9 °F 39.9 °F 40% 29.99 in 10.0 mi SSW 16.1 mph 24.2 mph N/A   Scattered Clouds
3:53 PM 64.9 °F 41.0 °F 42% 29.99 in 10.0 mi SSW 13.8 mph 23.0 mph N/A   Mostly Cloudy
4:53 PM 64.9 °F 39.9 °F 40% 29.98 in 10.0 mi SW 17.3 mph - N/A   Mostly Cloudy
5:53 PM 64.9 °F 37.0 °F 36% 29.98 in 10.0 mi SSW 16.1 mph 24.2 mph N/A   Mostly Cloudy
6:53 PM 62.1 °F 42.1 °F 48% 29.99 in 10.0 mi South 15.0 mph 20.7 mph N/A   Mostly Cloudy
7:16 PM 59.0 °F 39.9 °F 49% 29.97 in 10.0 mi WSW 11.5 mph 20.7 mph N/A   Mostly Cloudy
7:53 PM 57.9 °F 41.0 °F 53% 29.99 in 10.0 mi WSW 19.6 mph 25.3 mph N/A   Mostly Cloudy
8:53 PM 54.0 °F 42.1 °F 64% 30.01 in 10.0 mi WSW 12.7 mph - N/A   Scattered Clouds
9:53 PM 53.1 °F 43.0 °F 69% 30.01 in 10.0 mi SW 17.3 mph - N/A   Scattered Clouds
10:53 PM 53.1 °F 43.0 °F 69% 30.02 in 10.0 mi SSW 10.4 mph 19.6 mph N/A   Mostly Cloudy
11:53 PM 53.1 °F 43.0 °F 69% 30.01 in 10.0 mi South 11.5 mph - N/A   Mostly Cloudy